Flag for Germany Weather past 2 weeks in Rotenburg (Wümme), Lower Saxony, Germany

Now
61 °F

Fog.


Feels Like: 61 °F
Forecast: 48 / 59 °F
Wind: 2 mph from West

Location: Bremen

Current Time: Sep 21, 2014 at 2:08:15 AM

Latest Report: Sep 21, 2014 at 1:00 AM


Visibility: 3 mi

Pressure: 29.93 "Hg

Humidity: 91%

Dew point: 58 °F

Location of Rotenburg (Wümme)Location

Historic Weather in Rotenburg (Wümme) — Graph

°F

Rotenburg (Wümme) temperature yesterday

Maximum temperature yesterday: 74 °F (at 3:00 PM)
Minimum temperature yesterday: 56 °F (at 8:00 AM)
Average temperature yesterday: 64 °F

Past Weeks' High & Low Weather Summary

 TemperatureHumidityPressure
High77 °F (Sep 6, 4:00 PM)100% (Sep 12, 7:00 AM)30.27 "Hg (Sep 12, 7:00 AM)
Low51 °F (Sep 8, 4:00 AM)48% (Sep 8, 3:00 PM)29.87 "Hg (Sep 6, 6:00 PM)
Average63 °F81%30.04 "Hg
* Reported Sep 6 1:00 AM — Sep 21 1:00 AM, Rotenburg (Wümme), Weather by CustomWeather, © 2014

Note: Actual official high and low records may vary slightly from our data, if they occured in-between our weather recording intervals... More about our weather records

Advertising

Rotenburg (Wümme) weather history for previous 24 hours

 ConditionsComfort  
Time TempWeatherWind HumidityBarometerVisibility
1:00 AM
Sep 21
61 °FFog.2 mph91%29.93 "Hg3 mi
12:00 AM63 °FFog.2 mph88%29.93 "Hg3 mi
10:00 PM
Sep 20
63 °FOvercast.1 mph85%29.91 "Hg16 mi
9:00 PM65 °FOvercast.1 mph81%29.91 "Hg11 mi
8:00 PM67 °FOvercast.2 mph78%29.91 "Hg11 mi
3:00 PM74 °FOvercast.2 mph59%29.91 "Hg12 mi
2:00 PM73 °FPartly sunny.2 mph68%29.92 "Hg7 mi
1:00 PM72 °FPartly sunny.2 mph69%29.92 "Hg7 mi
12:00 PM69 °FScattered clouds.1 mph77%29.93 "Hg7 mi
11:00 AM66 °FScattered clouds.1 mph80%29.93 "Hg7 mi
10:00 AM62 °FLow clouds.1 mph89%29.93 "Hg5 mi
9:00 AM60 °FFog.1 mph92%29.92 "Hg4 mi
8:00 AM56 °FFog.1 mph95%29.92 "Hg3 mi
7:00 AM58 °FFog.2 mph94%29.90 "Hg4 mi
6:00 AM60 °FLow clouds.2 mph93%29.90 "Hg11 mi
5:00 AM60 °FFog.1 mph96%29.90 "Hg11 mi
4:00 AM60 °FPassing clouds.2 mph93%29.90 "Hg22 mi
3:00 AM62 °FPassing clouds.2 mph92%29.91 "Hg22 mi
2:00 AM62 °FPassing clouds.2 mph91%29.90 "Hg22 mi
Weather by CustomWeather, © 2014

See weather overviewHow to use our weather pages